IRIDIUM 86

Last updated on Wed Nov 29 2017 00:19:03 GMT+0000 (Coordinated Universal Time)

1 25528U 98066B 17332.27846743 .00000152 00000-0 47099-4 0 9999 2 25528 86.3944 281.1613 0002099 89.3583 270.7853 14.34218637 2885
UTC large
Height (km)
Speed (km/s)
/
Latitude / Longitude
Inclination (degrees)
Orbital Period (minutes)
Azimuth
Elevation
Range (km)
Doppler Factor

Next 0 passes for location: London (51.5072 / 0.1276)

Sorry there are no passes over London.